This demonstration page uses our WeatherBlox Daily Observations layout. Learn more.

Left ArrowRight Arrow

39.01783, -85.05884

Hourly Observations for October 11, 2016

Temp ( °F °C ) Dew Point ( °F °C ) Humidity (%) Winds ( mph kmh ) Pressure ( in mb ) Visibility ( mi km ) Precip ( " mm )
12:52 am 00:52 Mostly Cloudy 56 13.3 46 7.8 70 70 ESE 8 13 30.30 1026 10 16 0.00 0.00
1:52 am 01:52 Cloudy 57 13.9 46 7.8 67 67 SE 8 13 30.29 1026 10 16 0.00 0.00
2:52 am 02:52 Cloudy 55 12.8 45 7.2 69 69 SE 6 9 30.30 1026 10 16 0.00 0.00
3:52 am 03:52 Cloudy 54 12.2 44 6.7 69 69 Calm 30.30 1026 10 16 0.00 0.00
4:52 am 04:52 Cloudy 52 11.1 45 7.2 77 77 Calm 30.31 1026 10 16 0.00 0.00
5:52 am 05:52 Mostly Cloudy 53 11.7 44 6.7 72 72 Calm 30.30 1026 10 16 0.00 0.00
6:52 am 06:52 Mostly Cloudy 51 10.6 45 7.2 80 80 E 5 7 30.30 1026 10 16 0.00 0.00
7:52 am 07:52 Mostly Cloudy 50 10 44 6.7 80 80 E 5 7 30.29 1026 10 16 0.00 0.00
8:52 am 08:52 Cloudy 53 11.7 44 6.7 72 72 ESE 6 9 30.31 1026 10 16 0.00 0.00
9:52 am 09:52 Cloudy 55 12.8 45 7.2 69 69 SE 7 11 30.31 1026 10 16 0.00 0.00
10:52 am 10:52 Cloudy 58 14.4 46 7.8 65 65 SE 5 7 30.30 1026 10 16 0.00 0.00
11:52 am 11:52 Cloudy 63 17.2 47 8.3 56 56 S 7 11 30.29 1026 10 16 0.00 0.00
12:52 pm 12:52 Mostly Cloudy 66 18.9 47 8.3 50 50 SSW 5 7 30.27 1025 10 16 0.00 0.00
1:52 pm 13:52 Mostly Cloudy 68 20 48 8.9 49 49 SSW 5 7 30.25 1024 10 16 0.00 0.00
2:52 pm 14:52 Mostly Cloudy 71 21.7 49 9.4 46 46 SW 6 9 30.22 1023 10 16 0.00 0.00
3:52 pm 15:52 Partly Cloudy 74 23.3 49 9.4 41 41 S 6 9 30.20 1023 10 16 0.00 0.00
4:52 pm 16:52 Partly Cloudy 74 23.3 49 9.4 41 41 SSW 7 11 30.19 1022 10 16 0.00 0.00
5:52 pm 17:52 Partly Cloudy 73 22.8 49 9.4 43 43 SSW 6 9 30.18 1022 10 16 0.00 0.00
6:52 pm 18:52 Partly Cloudy 67 19.4 49 9.4 53 53 S 6 9 30.18 1022 10 16 0.00 0.00
7:52 pm 19:52 Partly Cloudy 63 17.2 50 10 63 63 S 5 7 30.18 1022 10 16 0.00 0.00
8:52 pm 20:52 Mostly Cloudy 63 17.2 49 9.4 60 60 S 6 9 30.18 1022 10 16 0.00 0.00
9:52 pm 21:52 Mostly Clear 62 16.7 49 9.4 62 62 S 5 7 30.18 1022 10 16 0.00 0.00
10:52 pm 22:52 Mostly Clear 59 15 50 10 72 72 S 6 9 30.18 1022 10 16 0.00 0.00
11:52 pm 23:52 Mostly Clear 54 12.2 51 10.6 90 90 S 5 7 30.19 1022 10 16 0.00 0.00

Powered by AerisWeather